Weather History for KEGV - October, 2012

Change the Weather History Date:

Friday, October 19, 2012

  Actual Average Record
Temperature  
Mean Temperature 42 °F -  
Max Temperature 46 °F 45 °F 73 °F (2000)
Min Temperature 39 °F 29 °F 18 °F (1992)
Degree Days  
Heating Degree Days 22    
Moisture  
Dew Point 40 °F    
Average Humidity 91    
Maximum Humidity 100    
Minimum Humidity 71    
Precipitation  
Precipitation 0.03 in - - ()
Sea Level Pressure  
Sea Level Pressure 29.56 in    
Wind  
Wind Speed 6 mph (NE)    
Max Wind Speed 12 mph    
Max Gust Speed -    
Visibility 10 miles    
Events Rain    
Averages and records for this station are not official NWS values.
T = Trace of Precipitation, MM = Missing Value Source: NWS Daily Summary

Daily Weather History Graph

Daily Weather History Graph

Search for Another Location

Airport or City:

Trip Planner

Search our weather history database for the weather conditions in past years. The results will help you decide how hot, cold, wet, or windy it might be!

Date:

Astronomy

Oct. 19, 2012 Rise Set
Actual Time 7:19 AM CDT 6:03 PM CDT
Civil Twilight 6:49 AM CDT 6:33 PM CDT
Nautical Twilight 6:14 AM CDT 7:08 PM CDT
Astronomical Twilight 5:40 AM CDT 7:42 PM CDT
Moon 12:14 PM CDT (10/19) 9:30 PM CDT (10/19)
Length of Visible Light 11h 43m
Length of Day
10h 43m
Waxing Crescent, 24% of the Moon is Illuminated
Oct 19
Waxing Crescent
Oct 21
First Quarter
Oct 29
Full
Nov 6
Last Quarter
Nov 13
New

Hourly Weather History & Observations

Time (CDT) Temp. Windchill Dew Point Humidity Pressure Visibility Wind Dir Wind Speed Gust Speed Precip Events Conditions
1:15 AM 41.0 °F 37.1 °F 41.0 °F 100% 29.44 in 10.0 mi ESE 5.8 mph - N/A   Overcast
1:35 AM 41.0 °F 35.8 °F 41.0 °F 100% 29.44 in 10.0 mi ESE 8.1 mph - N/A   Overcast
1:55 AM 41.0 °F 35.8 °F 39.2 °F 93% 29.44 in 10.0 mi ESE 8.1 mph - N/A   Overcast
2:15 AM 39.2 °F 35.0 °F 39.2 °F 100% 29.46 in 10.0 mi ESE 5.8 mph - N/A   Overcast
2:35 AM 39.2 °F 34.2 °F 39.2 °F 100% 29.46 in 10.0 mi ESE 6.9 mph - N/A   Overcast
2:55 AM 41.0 °F 39.0 °F 39.2 °F 93% 29.46 in 10.0 mi East 3.5 mph - N/A   Overcast
3:15 AM 39.2 °F 35.0 °F 39.2 °F 100% 29.46 in 10.0 mi ESE 5.8 mph - N/A   Overcast
3:55 AM 41.0 °F 38.0 °F 39.2 °F 93% 29.47 in 10.0 mi East 4.6 mph - N/A   Overcast
4:15 AM 41.0 °F 38.0 °F 39.2 °F 93% 29.48 in 10.0 mi East 4.6 mph - N/A   Overcast
4:55 AM 41.0 °F 37.1 °F 39.2 °F 93% 29.48 in 10.0 mi East 5.8 mph - N/A   Overcast
5:15 AM 41.0 °F 36.4 °F 37.4 °F 87% 29.49 in 10.0 mi East 6.9 mph - N/A   Overcast
5:35 AM 41.0 °F 37.1 °F 37.4 °F 87% 29.49 in 10.0 mi East 5.8 mph - N/A   Overcast
5:55 AM 41.0 °F 39.0 °F 39.2 °F 93% 29.50 in 10.0 mi East 3.5 mph - N/A   Overcast
6:15 AM 41.0 °F 38.0 °F 39.2 °F 93% 29.51 in 10.0 mi ENE 4.6 mph - N/A   Overcast
6:35 AM 41.0 °F 38.0 °F 39.2 °F 93% 29.52 in 10.0 mi NE 4.6 mph - N/A   Overcast
6:55 AM 41.0 °F 39.0 °F 39.2 °F 93% 29.52 in 10.0 mi ENE 3.5 mph - N/A   Overcast
7:15 AM 41.0 °F 39.0 °F 39.2 °F 93% 29.53 in 10.0 mi ENE 3.5 mph - N/A   Overcast
7:35 AM 41.0 °F 38.0 °F 39.2 °F 93% 29.53 in 10.0 mi NE 4.6 mph - N/A   Overcast
7:55 AM 41.0 °F 37.1 °F 39.2 °F 93% 29.53 in 10.0 mi East 5.8 mph - N/A   Overcast
8:15 AM 41.0 °F 37.1 °F 39.2 °F 93% 29.54 in 10.0 mi East 5.8 mph - N/A   Overcast
8:35 AM 41.0 °F 37.1 °F 39.2 °F 93% 29.54 in 10.0 mi ENE 5.8 mph - N/A Rain Light Rain
8:55 AM 41.0 °F 38.0 °F 39.2 °F 93% 29.55 in 10.0 mi ENE 4.6 mph - N/A   Light Drizzle
9:15 AM 41.0 °F 38.0 °F 39.2 °F 93% 29.55 in 10.0 mi ENE 4.6 mph - N/A   Overcast
9:35 AM 42.8 °F 38.6 °F 39.2 °F 87% 29.56 in 10.0 mi NE 6.9 mph - N/A   Overcast
9:55 AM 42.8 °F 38.6 °F 37.4 °F 81% 29.56 in 10.0 mi ENE 6.9 mph - N/A   Overcast
10:15 AM 42.8 °F 39.3 °F 39.2 °F 87% 29.56 in 10.0 mi East 5.8 mph - N/A   Overcast
10:55 AM 42.8 °F 39.3 °F 39.2 °F 87% 29.57 in 10.0 mi ENE 5.8 mph - N/A   Overcast
11:15 AM 42.8 °F 40.1 °F 37.4 °F 81% 29.58 in 10.0 mi East 4.6 mph - N/A   Overcast
11:35 AM 44.6 °F 41.4 °F 39.2 °F 81% 29.58 in 10.0 mi NNE 5.8 mph - N/A   Overcast
11:55 AM 44.6 °F 43.1 °F 39.2 °F 81% 29.58 in 10.0 mi NNE 3.5 mph - N/A   Overcast
12:35 PM 44.6 °F 42.2 °F 42.8 °F 93% 29.58 in 10.0 mi NNW 4.6 mph - 0.01 in   Overcast
12:55 PM 44.6 °F 39.7 °F 41.0 °F 87% 29.58 in 10.0 mi NNE 9.2 mph - 0.01 in   Overcast
1:15 PM 42.8 °F 40.1 °F 41.0 °F 93% 29.58 in 7.0 mi NE 4.6 mph - 0.01 in Rain Light Rain
1:35 PM 44.6 °F 41.4 °F 42.8 °F 93% 29.58 in 7.0 mi NNE 5.8 mph - 0.02 in Rain Rain
2:15 PM 44.6 °F 38.8 °F 41.0 °F 87% 29.57 in 10.0 mi NE 11.5 mph - N/A   Overcast
2:35 PM 44.6 °F 39.7 °F 39.2 °F 81% 29.57 in 10.0 mi NNE 9.2 mph - N/A   Overcast
2:55 PM 44.6 °F 39.7 °F 41.0 °F 87% 29.58 in 10.0 mi NE 9.2 mph - N/A   Overcast
3:15 PM 46.4 °F 41.5 °F 39.2 °F 76% 29.58 in 10.0 mi NE 10.4 mph - N/A   Overcast
3:35 PM 46.4 °F 41.1 °F 39.2 °F 76% 29.59 in 10.0 mi NNE 11.5 mph - N/A   Mostly Cloudy
4:15 PM 46.4 °F 43.5 °F 41.0 °F 81% 29.59 in 10.0 mi North 5.8 mph - N/A   Mostly Cloudy
4:35 PM 46.4 °F 44.3 °F 37.4 °F 71% 29.59 in 10.0 mi North 4.6 mph - N/A   Scattered Clouds
4:55 PM 46.4 °F 44.3 °F 41.0 °F 81% 29.60 in 10.0 mi NNW 4.6 mph - N/A   Mostly Cloudy
5:15 PM 46.4 °F 45.2 °F 37.4 °F 71% 29.60 in 10.0 mi NNE 3.5 mph - N/A   Overcast
5:55 PM 44.6 °F 40.7 °F 41.0 °F 87% 29.62 in 10.0 mi NNE 6.9 mph - N/A Rain Light Rain
6:15 PM 42.8 °F 39.3 °F 41.0 °F 93% 29.62 in 10.0 mi NNW 5.8 mph - N/A   Overcast
6:55 PM 42.8 °F 39.3 °F 41.0 °F 93% 29.63 in 10.0 mi NNW 5.8 mph - N/A   Overcast
7:15 PM 42.8 °F 39.3 °F 41.0 °F 93% 29.63 in 10.0 mi North 5.8 mph - N/A   Overcast
7:55 PM 42.8 °F 38.0 °F 41.0 °F 93% 29.64 in 10.0 mi NNW 8.1 mph - N/A   Overcast
8:15 PM 42.8 °F 39.3 °F 41.0 °F 93% 29.65 in 10.0 mi NNW 5.8 mph - N/A   Overcast
8:35 PM 41.0 °F 36.4 °F 41.0 °F 100% 29.65 in 10.0 mi North 6.9 mph - N/A   Overcast
9:15 PM 39.2 °F 34.2 °F 39.2 °F 100% 29.65 in 10.0 mi NNW 6.9 mph - N/A   Mostly Cloudy
9:35 PM 41.0 °F 37.1 °F 41.0 °F 100% 29.65 in 10.0 mi NNW 5.8 mph - N/A   Overcast
9:55 PM 41.0 °F 37.1 °F 41.0 °F 100% 29.65 in 10.0 mi North 5.8 mph - N/A   Overcast
10:15 PM 41.0 °F 36.4 °F 41.0 °F 100% 29.64 in 10.0 mi North 6.9 mph - N/A   Overcast
10:35 PM 41.0 °F 35.8 °F 41.0 °F 100% 29.65 in 10.0 mi North 8.1 mph - N/A   Overcast
10:55 PM 41.0 °F 36.4 °F 41.0 °F 100% 29.64 in 10.0 mi North 6.9 mph - N/A   Overcast
11:15 PM 41.0 °F 38.0 °F 41.0 °F 100% 29.64 in 10.0 mi North 4.6 mph - N/A   Overcast
11:35 PM 41.0 °F 37.1 °F 41.0 °F 100% 29.64 in 10.0 mi North 5.8 mph - N/A   Overcast
11:55 PM 41.0 °F 37.1 °F 41.0 °F 100% 29.64 in 10.0 mi North 5.8 mph - N/A   Overcast